Weather History for Houston / Southwest Airport, TX

Change the Weather History Date:

Friday, November 2, 2012

  Actual Average (KHOU) Record (KHOU)
Temperature  
Mean Temperature 74 °F 67 °F  
Max Temperature 92 °F 77 °F 89 °F (1978)
Min Temperature 55 °F 56 °F 34 °F (1991)
Degree Days  
Heating Degree Days 0 3  
Month to date heating degree days 5  
Since 1 July heating degree days 35  
Cooling Degree Days 8 4  
Month to date cooling degree days 8  
Year to date cooling degree days 3062  
Growing Degree Days 24 (Base 50)    
Moisture  
Dew Point 58 °F    
Average Humidity 68    
Maximum Humidity 93    
Minimum Humidity 28    
Precipitation  
Precipitation 0.00 in 0.14 in 4.58 in (1943)
Month to date precipitation 0.29  
Year to date precipitation 41.98  
Sea Level Pressure  
Sea Level Pressure 30.02 in    
Wind  
Wind Speed 2 mph (South)    
Max Wind Speed 10 mph    
Max Gust Speed 21 mph    
Visibility 6 miles    
Events Fog    
T = Trace of Precipitation, MM = Missing Value Source: NWS Daily Summary

Daily Weather History Graph

Daily Weather History Graph

Search for Another Location

Airport:

Trip Planner

Search our weather history database for the weather conditions in past years. The results will help you decide how hot, cold, wet, or windy it might be!

Date:

Astronomy

Nov. 02, 2012 Rise Set
Actual Time 7:36 AM CDT 6:34 PM CDT
Civil Twilight 7:11 AM CDT 6:58 PM CDT
Nautical Twilight 6:43 AM CDT 7:27 PM CDT
Astronomical Twilight 6:15 AM CDT 7:55 PM CDT
Moon 9:31 PM CDT (11/2) 10:48 AM CDT (11/2)
Length of Visible Light 11h 47m
Length of Day
10h 58m
Waning Gibbous, 87% of the Moon is Illuminated
Nov 2
Waning Gibbous
Nov 6
Last Quarter
Nov 13
New
Nov 20
First Quarter
Nov 28
Full

Hourly Weather History & Observations

Time (CDT) Temp. Heat Index Dew Point Humidity Pressure Visibility Wind Dir Wind Speed Gust Speed Precip Events Conditions
12:15 AM 62.1 °F - 56.3 °F 81% 30.03 in 0.2 mi Calm Calm - N/A   Haze
12:35 AM 60.1 °F - 55.0 °F 83% 30.03 in 0.2 mi Calm Calm - N/A   Haze
12:55 AM 59.4 °F - 54.3 °F 83% 30.02 in 0.2 mi Calm Calm - N/A   Haze
1:15 AM 59.0 °F - 53.8 °F 83% 30.02 in 0.2 mi Calm Calm - N/A   Haze
1:35 AM 59.9 °F - 54.1 °F 81% 30.02 in 0.2 mi Calm Calm - N/A   Haze
1:55 AM 59.9 °F - 55.0 °F 84% 30.02 in 0.2 mi Calm Calm - N/A   Haze
2:15 AM 60.8 °F - 55.6 °F 83% 30.02 in 0.5 mi Calm Calm - N/A   Haze
2:35 AM 59.5 °F - 54.5 °F 83% 30.02 in 0.2 mi Calm Calm - N/A   Haze
2:55 AM 59.0 °F - 54.3 °F 84% 30.01 in 0.2 mi Calm Calm - N/A   Haze
3:15 AM 59.4 °F - 54.9 °F 85% 30.01 in 0.2 mi Calm Calm - N/A Fog Fog
3:35 AM 58.6 °F - 53.8 °F 84% 30.01 in 0.2 mi Calm Calm - N/A   Haze
3:55 AM 57.9 °F - 53.4 °F 85% 30.01 in 0.2 mi Calm Calm - N/A   Haze
4:15 AM 57.6 °F - 52.3 °F 83% 30.01 in 0.2 mi Calm Calm - N/A   Haze
4:35 AM 56.8 °F - 51.4 °F 82% 30.01 in 0.2 mi Calm Calm - N/A   Haze
4:55 AM 57.0 °F - 52.0 °F 83% 30.01 in 0.2 mi Calm Calm - N/A   Haze
5:15 AM 56.5 °F - 52.0 °F 85% 30.01 in 0.2 mi Calm Calm - N/A   Haze
5:35 AM 56.3 °F - 52.5 °F 87% 30.02 in 0.2 mi Calm Calm - N/A Fog Fog
5:55 AM 55.8 °F - 51.4 °F 85% 30.02 in 0.2 mi Calm Calm - N/A Fog Fog
6:15 AM 56.8 °F - 52.2 °F 84% 30.02 in 0.2 mi Calm Calm - N/A   Haze
6:35 AM 56.3 °F - 51.4 °F 84% 30.02 in 0.2 mi Calm Calm - N/A Fog Fog
6:55 AM 55.6 °F - 51.3 °F 85% 30.03 in 0.2 mi SSE 3.5 mph - N/A   Haze
7:15 AM 55.8 °F - 52.2 °F 88% 30.03 in 0.5 mi Calm Calm - N/A Fog Fog
7:35 AM 55.4 °F - 51.8 °F 88% 30.03 in 0.2 mi Calm Calm - N/A Fog Fog
7:55 AM 55.8 °F - 52.3 °F 88% 30.04 in 0.2 mi Calm Calm - N/A Fog Fog
8:35 AM 60.4 °F - 58.3 °F 93% 30.04 in 0.5 mi Calm Calm - N/A Fog Fog
8:55 AM 67.8 °F - 65.7 °F 93% 30.04 in 10.0 mi SW 3.5 mph - N/A   Scattered Clouds
9:15 AM 71.8 °F - 68.4 °F 89% 30.04 in 10.0 mi SW 3.5 mph - N/A   Clear
9:35 AM 74.5 °F - 68.4 °F 81% 30.05 in 10.0 mi SW 3.5 mph - N/A   Clear
9:55 AM 77.0 °F - 67.8 °F 73% 30.06 in 10.0 mi SW 5.8 mph - N/A   Clear
10:15 AM 78.8 °F - 67.5 °F 68% 30.06 in 10.0 mi WSW 6.9 mph - N/A   Clear
10:35 AM 80.1 °F 82.4 °F 67.3 °F 65% 30.06 in 10.0 mi SSW 5.8 mph - N/A   Clear
10:55 AM 81.7 °F 84.0 °F 66.4 °F 60% 30.06 in 10.0 mi SW 6.9 mph - N/A   Scattered Clouds
11:15 AM 83.5 °F 85.5 °F 66.0 °F 55% 30.06 in 10.0 mi SW 6.9 mph - N/A   Scattered Clouds
11:35 AM 85.1 °F 86.6 °F 64.4 °F 50% 30.06 in 10.0 mi WSW 5.8 mph - N/A   Mostly Cloudy
11:55 AM 86.9 °F 88.1 °F 63.7 °F 46% 30.05 in 10.0 mi WSW 4.6 mph - N/A   Mostly Cloudy
12:15 PM 87.4 °F 86.7 °F 58.6 °F 38% 30.05 in 10.0 mi SSW 4.6 mph - N/A   Scattered Clouds
12:35 PM 84.4 °F 83.8 °F 58.1 °F 41% 30.04 in 10.0 mi SSW 3.5 mph - N/A   Scattered Clouds
12:55 PM 83.7 °F 83.6 °F 59.5 °F 44% 30.04 in 10.0 mi South 3.5 mph - N/A   Scattered Clouds
1:15 PM 89.4 °F 87.7 °F 55.8 °F 32% 30.03 in 10.0 mi South 8.1 mph - N/A   Scattered Clouds
1:35 PM 90.1 °F 87.9 °F 54.1 °F 29% 30.01 in 10.0 mi SW 8.1 mph - N/A   Scattered Clouds
1:55 PM 90.0 °F - 52.7 °F 28% 30.00 in 10.0 mi SW 8.1 mph - N/A   Clear
2:15 PM 90.1 °F 87.9 °F 53.4 °F 29% 30.00 in 10.0 mi South 5.8 mph - N/A   Clear
2:55 PM 92.3 °F 90.2 °F 54.5 °F 28% 29.98 in 10.0 mi SSW 9.2 mph - N/A   Scattered Clouds
3:15 PM 86.9 °F 85.1 °F 54.3 °F 33% 29.98 in 10.0 mi SSE 8.1 mph - N/A   Scattered Clouds
3:35 PM 87.4 °F 85.7 °F 55.4 °F 33% 29.98 in 10.0 mi South 8.1 mph - N/A   Mostly Cloudy
3:55 PM 87.3 °F 85.5 °F 55.2 °F 33% 29.97 in 10.0 mi SSE 6.9 mph - N/A   Mostly Cloudy
4:15 PM 88.9 °F 86.9 °F 54.7 °F 31% 29.96 in 10.0 mi SSE 8.1 mph - N/A   Scattered Clouds
4:35 PM 88.0 °F 86.1 °F 54.3 °F 32% 29.96 in 10.0 mi South 9.2 mph - N/A   Scattered Clouds
4:55 PM 86.2 °F 84.5 °F 54.7 °F 34% 29.97 in 10.0 mi South 8.1 mph - N/A   Scattered Clouds
5:15 PM 84.7 °F 83.4 °F 55.2 °F 36% 29.97 in 10.0 mi SSE 8.1 mph 16.1 mph N/A   Clear
5:35 PM 83.5 °F 82.9 °F 57.4 °F 41% 29.97 in 10.0 mi South 8.1 mph - N/A   Clear
5:55 PM 82.2 °F 82.4 °F 59.4 °F 46% 29.98 in 10.0 mi SSE 10.4 mph 20.7 mph N/A   Clear
6:15 PM 79.2 °F - 62.6 °F 57% 29.98 in 10.0 mi SSE 6.9 mph - N/A   Clear
6:55 PM 74.7 °F - 63.1 °F 67% 29.99 in 10.0 mi SSE 5.8 mph - N/A   Clear
7:15 PM 73.4 °F - 63.3 °F 71% 29.99 in 10.0 mi SSE 5.8 mph - N/A   Clear
7:35 PM 72.5 °F - 63.1 °F 72% 30.00 in 10.0 mi SSE 4.6 mph - N/A   Clear
7:55 PM 71.1 °F - 62.6 °F 75% 30.00 in 10.0 mi SSE 3.5 mph - N/A   Clear
8:15 PM 70.2 °F - 62.6 °F 77% 30.01 in 10.0 mi SSE 3.5 mph - N/A   Clear
8:35 PM 69.1 °F - 62.2 °F 79% 30.01 in 10.0 mi Calm Calm - N/A   Clear
8:55 PM 68.2 °F - 61.5 °F 79% 30.01 in 10.0 mi Calm Calm - N/A   Clear
9:15 PM 67.5 °F - 61.2 °F 80% 30.02 in 10.0 mi South 3.5 mph - N/A   Clear
9:35 PM 66.7 °F - 61.0 °F 82% 30.02 in 10.0 mi Calm Calm - N/A   Clear
9:55 PM 66.2 °F - 60.1 °F 81% 30.03 in 10.0 mi Calm Calm - N/A   Clear
10:15 PM 65.8 °F - 60.8 °F 84% 30.03 in 10.0 mi Calm Calm - N/A   Clear
10:35 PM 65.1 °F - 60.4 °F 85% 30.04 in 10.0 mi SSE 3.5 mph - N/A   Clear
10:55 PM 64.9 °F - 60.3 °F 85% 30.04 in 10.0 mi SSE 3.5 mph - N/A   Clear
11:15 PM 64.9 °F - 60.8 °F 86% 30.04 in 10.0 mi Calm Calm - N/A   Clear
11:35 PM 64.8 °F - 61.5 °F 89% 30.03 in 4.0 mi Calm Calm - N/A   Clear
11:55 PM 64.9 °F - 60.8 °F 86% 30.03 in 2.5 mi Calm Calm - N/A   Clear